sat.trackr.live / text

‹ back to catalog

STARLINK-5413

NORAD 54808 · 2022-175BC

PAYLOAD ACTIVE UNKNOWN

§ Identity

Operator
Country
US
Launch date
2022-12-17
Launch site
AFETR
Launch vehicle
Mass (kg)
RCS (m²)

Purposes: comms

External: N2YO · Heavens-Above · Gunter

§ Orbital elements

Epoch: 2026-05-25T02:20:09.191040Z

Period
95.44 min
Inclination
53.2126°
Eccentricity
0.0001520
Mean motion
15.08834267 rev/d
Perigee alt
538.7 km
Apogee alt
540.8 km
Semi-major
6,917.9 km
B*
3.3549e-5
RAAN
31.2823°
Arg perigee
81.5458°
Mean anomaly
278.5707°
Rev number
19,187

§ Raw data

STARLINK-54131 54808U 22175BC  26145.09732860  .00000246  00000+0  33549-4 0  99942 54808  53.2126  31.2823 0001520  81.5458 278.5707 15.08834267191870

JSON: /api/v1/satellites/54808 · /tle

For live sub-satellite position, see the globe view (requires WebGL).

§ Visibility from observer

Set your observer location to see the next 7 days of passes ≥ 10°. The values pass through the URL so the page stays shareable.

No JS? Fill the form by hand. The geolocation button needs JavaScript.